Starlink 31414

operational
NORAD ID: 59418 Int'l Des: 2024-064 Owner: SPXS Country: US Constellation: starlink
LEOCIRCULAR

Starlink 31414について

説明を読み込み中...

リアルタイム位置

3D地球を読み込み中...

次回通過

高度履歴

Altitude vs Time

uPlot chart will show altitude changes over time

軌道要素

1 59418U 24064W 25305.71954072 .00000668 00000-0 33802-4 0 9993
2 59418 43.0019 58.9455 0001548 274.9778 85.0897 15.27575014 89656
Epoch: Nov 1, 2025 • Age: 29 hours

現在のステータス

高度 487.2 km
速度 7.63 km/s
衛星直下点 42.81°N, 139.67°E
打ち上げ日 Apr 5, 2024
運用期間 1.5 years
タイプ internet

技術仕様

分類 Payload
質量 730.00 kg
乾燥質量 700.00 kg
総質量 730.00 kg
長さ 0.30 m
直径 4.10 m
スパン 29.00 m
形状 Box + pan
製造者 SPXS
バスタイプ Starlink V2M
フェーズステータス In Orbit
所有者/国 SPXS/US

大規模コンステレーション

Loading constellations...